[[{"header":{"parameterUnit":"m.s-1","parameterCategory":1,"la1":30.2991,"la2":30.254,"lo1":-89.0895,"lo2":-89.0444,"dy":0.0017,"dx":0.0017,"nx":28,"ny":28,"refTime":"2024-07-27T09:00:00:Z","depth":0,"parameterNumber":2,"parameterNumberName":"U-component_of_WINDS"},"data":[0,0,0,0,0,0,0,0,0,0,0,0,0,0,0,0,0,0,0,0,0,0,0,0,0,0,0,0,0,0,0,0,0,0,0,0,0,0,0,0,0,0,0,0,0,0,0,0,0,0,0,0,0,0,0,0,0,0,-4.5433,-4.5433,0,-4.5463,-4.5463,-4.5464,-4.5323,-4.5319,-4.5315,-4.5311,-4.5343,-4.5347,-4.5352,0,0,0,0,0,0,0,0,0,0,0,0,0,-4.5254,-4.5258,-4.5433,-4.5433,-4.5434,-4.5463,-4.5463,-4.5464,-4.5324,-4.5319,-4.5314,-4.5309,-4.5341,-4.5347,-4.5352,0,0,0,0,0,0,0,0,0,0,0,0,0,-4.5313,-4.5259,-4.5433,-4.5367,-4.5362,-4.5463,-4.5463,-4.5464,-4.5325,-4.5318,-4.5312,-4.5307,-4.5339,-4.5346,-4.5353,-4.5519,0,0,-4.5374,-4.5377,0,0,0,0,0,0,0,0,-4.5309,-4.5319,-4.5377,-4.5372,-4.5366,-4.5383,-4.5412,-4.5482,-4.5326,-4.5339,-4.5311,-4.5304,-4.5361,-4.5366,-4.5385,-4.552,-4.5522,-4.5375,-4.5379,-4.5382,-4.5384,0,0,0,0,0,0,0,-4.5306,-4.5317,-4.5445,-4.5378,-4.5371,-4.5336,-4.5338,-4.5424,-4.5384,-4.5337,-4.5327,-4.5332,-4.5357,-4.5379,-4.5385,-4.5522,-4.5375,-4.5381,-4.5385,-4.5388,-4.5794,-4.58,0,0,0,0,0,0,-4.531,-4.5315,-4.5444,-4.5446,-4.5322,-4.5344,-4.5346,-4.5384,-4.5383,-4.5377,-4.5338,-4.5326,-4.537,-4.5377,-4.5385,-4.5578,-4.5382,-4.5389,-4.5393,-4.5787,-4.5795,-4.5802,0,0,0,0,0,0,-4.5307,-4.5323,-4.5443,-4.5377,-4.539,-4.5354,-4.5397,-4.5387,-4.5409,-4.5383,-4.5375,-4.5367,-4.5365,-4.5375,-4.5486,-4.5578,-4.5392,-4.5398,-4.5779,-4.5789,-4.5799,-4.5967,0,0,0,0,0,0,-4.5302,-4.5323,-4.5386,-4.538,-4.5394,-4.5544,-4.5403,-4.5393,-4.5421,-4.5406,-4.5409,-4.5403,-4.5361,-4.5477,-4.5493,-4.5584,-4.5404,-4.5771,-4.5784,-4.5795,-4.5953,-4.5982,-4.6006,0,0,0,0,0,-4.5296,-4.5433,-4.539,-4.5406,-4.5472,-4.555,-4.5557,-4.5506,-4.5429,-4.5492,-4.5475,-4.5403,-4.5565,-4.5489,-4.5507,-4.5601,-4.5765,-4.578,-4.5794,-4.5942,-4.5976,-4.6005,0,0,0,0,0,0,-4.5451,-4.5431,-4.5383,-4.5521,-4.5538,-4.5526,-4.5603,-4.5544,-4.5584,-4.5568,-4.5502,-4.5504,-4.5626,-4.5624,-4.554,-4.576,-4.5651,-4.5671,-4.5757,-4.579,-4.5816,-4.5813,-4.5409,0,0,0,0,0,-4.5501,-4.5565,-4.5544,-4.5668,-4.5679,-4.564,-4.5672,-4.5631,-4.5646,-4.5652,-4.5643,-4.5661,-4.5715,-4.5752,-4.5801,-4.5952,-4.595,-4.6025,-4.6052,-4.6073,-4.6091,-4.6169,-4.6202,-4.5851,-4.5851,-4.585,0,0,-4.5605,-4.5602,-4.5647,-4.5699,-4.5707,-4.5775,-4.5647,-4.5725,-4.5774,-4.5664,-4.5768,-4.5762,-4.5777,-4.5908,-4.5966,-4.5911,-4.6187,-4.6092,-4.611,-4.6115,-4.6188,-4.6221,-4.625,-4.5861,-4.5859,-4.5857,0,0,-4.583,-4.5835,-4.5938,-4.5948,-4.5962,-4.5934,-4.5959,-4.5956,-4.5947,-4.605,-4.5968,-4.6026,-4.6122,-4.6135,-4.6155,-4.6383,-4.6318,-4.64,-4.6538,-4.6615,-4.6643,-4.6667,-4.6747,-4.6777,-4.6418,-4.6418,-4.6418,0,-4.5958,-4.6057,-4.5998,-4.6081,-4.6106,-4.6008,-4.6112,-4.6125,-4.6154,-4.6174,-4.6111,-4.6228,-4.6231,-4.6363,-4.6419,-4.6438,-4.6464,-4.64,-4.6643,-4.6667,-4.6689,-4.6765,-4.6795,-4.6428,-4.6427,-4.6426,-4.6425,0,-4.6213,-4.6283,-4.6365,-4.6394,-4.6428,-4.6522,-4.6477,-4.6518,-4.6474,-4.6453,-4.6558,-4.6559,-4.6605,-4.6633,-4.6591,-4.676,-4.6725,-4.6654,-4.6543,-4.6733,-4.6803,-4.6832,-4.6442,-4.6439,-4.6436,-4.6433,0,0,-4.6537,-4.6532,-4.6563,-4.6574,-4.6581,-4.6634,-4.6722,-4.6767,-4.6803,-4.6827,-4.6898,-4.6981,-4.6914,-4.6937,-4.6895,-4.6963,-4.7142,-4.6883,-4.6882,-4.693,-4.7327,-4.738,-4.7414,-4.7099,-4.7104,-4.7108,-4.7325,0,-4.6756,-4.6906,-4.6855,-4.7007,-4.707,-4.6978,-4.7054,-4.7067,-4.705,-4.71,-4.7081,-4.714,-4.7049,-4.7061,-4.7124,-4.7107,-4.7221,-4.7091,-4.7164,-4.7168,-4.7163,-4.7451,-4.7508,-4.7713,-4.7352,-4.7357,-4.736,0,-4.7032,-4.7065,-4.7224,-4.7219,-4.7243,-4.7313,-4.7349,-4.7399,-4.7411,-4.7393,-4.7418,-4.7361,-4.7446,-4.7335,-4.7451,-4.7364,-4.7391,-4.7387,-4.7394,-4.7398,-4.7276,-4.7463,-4.7777,-4.7807,-4.7403,-4.74,-4.7397,0,-4.7251,-4.7336,-4.7441,-4.7454,-4.7451,-4.7502,-4.7503,-4.7508,-4.7538,-4.7569,-4.7588,-4.7629,-4.7652,-4.7685,-4.7641,-4.7565,-4.7764,-4.7649,-4.7751,-4.7752,-4.7797,-4.7795,-4.8119,-4.7816,-4.7815,-4.7815,-4.7814,0,-4.7501,-4.7602,-4.7539,-4.7604,-4.7713,-4.7654,-4.7763,-4.7754,-4.776,-4.7821,-4.7743,-4.7802,-4.774,-4.7793,-4.7759,-4.786,-4.7871,-4.7859,-4.7848,-4.7866,-4.7867,-4.7882,-4.7867,-4.7823,-4.7821,-4.782,-4.7818,0,-4.7765,-4.7727,-4.7835,-4.7823,-4.7822,-4.7903,-4.7892,-4.7951,-4.7928,-4.8006,-4.8021,-4.7985,-4.8043,-4.8002,-4.806,-4.8037,-4.8169,-4.814,-4.8166,-4.8157,-4.8261,-4.8252,-4.8606,-4.8649,-4.8319,-4.8322,-4.8325,0,-4.7927,-4.8001,-4.7997,-4.8032,-4.8037,-4.8095,-4.8124,-4.8068,-4.8102,-4.812,-4.8177,-4.8229,-4.8267,-4.8364,-4.8343,-4.8387,-4.8357,-4.8478,-4.8363,-4.8377,-4.8357,-4.8353,-4.836,-4.8501,-4.8505,-4.8508,-4.8511,0,-4.8218,-4.8195,-4.824,-4.8279,-4.8316,-4.8344,-4.8366,-4.8399,-4.8341,-4.8383,-4.8441,-4.8471,-4.853,-4.8581,-4.8617,-4.8617,-4.8555,-4.8547,-4.8572,-4.8591,-4.8602,-4.8596,-4.8228,-4.8539,-4.8536,-4.8534,-4.8533,-4.8531,-4.8434,-4.8496,-4.8502,-4.8555,-4.8565,-4.8586,-4.8641,-4.8624,-4.8671,-4.8714,-4.8678,-4.8748,-4.8756,-4.8797,-4.8805,-4.8858,-4.8809,-4.8846,-4.8856,-4.8866,-4.888,-4.8594,-4.8865,-4.8864,-4.8863,-4.8862,-4.8862,0,-4.8721,-4.8719,-4.8768,-4.88,-4.8842,-4.8778,-4.8799,-4.8837,-4.8899,-4.8912,-4.8951,-4.9017,-4.9066,-4.9049,-4.9092,-4.9138,-4.9111,-4.9152,-4.9147,-4.9148,-4.8922,-4.8895,-4.9173,-4.9173,-4.9173,-4.9173,-4.9173,-4.9173,-4.8874,-4.8975,-4.8953,-4.9057,-4.9055,-4.9122,-4.9139,-4.9158,-4.9167,-4.9245,-4.9285,-4.9273,-4.9273,-4.9316,-4.9358,-4.9352,-4.9371,-4.9423,-4.9406,-4.9195,-4.9164,-4.9135,-4.9109,-4.9428,-4.9428,-4.9627,-4.9629,-4.963]},{"header":{"parameterUnit":"m.s-1","parameterCategory":1,"la1":30.2991,"la2":30.254,"lo1":-89.0895,"lo2":-89.0444,"dy":0.0017,"dx":0.0017,"nx":28,"ny":28,"refTime":"2024-07-27T09:00:00:Z","depth":0,"parameterNumber":3,"parameterNumberName":"V-component_of_WINDS"},"data":[0,0,0,0,0,0,0,0,0,0,0,0,0,0,0,0,0,0,0,0,0,0,0,0,0,0,0,0,0,0,0,0,0,0,0,0,0,0,0,0,0,0,0,0,0,0,0,0,0,0,0,0,0,0,0,0,0,0,-1.99,-1.9899,0,-1.9799,-1.9798,-1.9796,-1.972,-1.972,-1.9719,-1.9718,-1.9614,-1.9612,-1.961,0,0,0,0,0,0,0,0,0,0,0,0,0,-2.0024,-2.0023,-1.99,-1.9899,-1.9898,-1.9799,-1.9798,-1.9796,-1.9721,-1.972,-1.9719,-1.9718,-1.9615,-1.9612,-1.9609,0,0,0,0,0,0,0,0,0,0,0,0,0,-1.9952,-2.0022,-1.99,-1.9848,-1.9842,-1.9799,-1.9798,-1.9796,-1.9721,-1.972,-1.9719,-1.9718,-1.9615,-1.9612,-1.9609,-1.961,0,0,-1.9599,-1.9598,0,0,0,0,0,0,0,0,-1.9956,-1.9947,-1.9857,-1.9852,-1.9845,-1.9771,-1.9803,-1.9733,-1.9721,-1.9767,-1.9718,-1.9717,-1.9667,-1.9659,-1.9643,-1.9605,-1.96,-1.9599,-1.9597,-1.9596,-1.9595,0,0,0,0,0,0,0,-1.9961,-1.9951,-1.986,-1.9856,-1.9848,-1.9828,-1.9817,-1.9789,-1.9724,-1.9763,-1.9757,-1.9746,-1.9663,-1.9646,-1.964,-1.9599,-1.9599,-1.9596,-1.9594,-1.9593,-1.9551,-1.9552,0,0,0,0,0,0,-1.9975,-1.9956,-1.9863,-1.9857,-1.9899,-1.9827,-1.9814,-1.9796,-1.9724,-1.9712,-1.9747,-1.9743,-1.9652,-1.9643,-1.9636,-1.9629,-1.9596,-1.9593,-1.9591,-1.9551,-1.9552,-1.9553,0,0,0,0,0,0,-1.9978,-1.9967,-1.9867,-1.9905,-1.989,-1.9826,-1.9806,-1.9795,-1.9777,-1.9712,-1.97,-1.9741,-1.9651,-1.964,-1.9616,-1.9624,-1.9591,-1.9588,-1.955,-1.9551,-1.9552,-1.9617,0,0,0,0,0,0,-1.9981,-1.9969,-1.9969,-1.9905,-1.9889,-1.985,-1.9807,-1.9793,-1.9772,-1.9765,-1.9704,-1.9692,-1.9649,-1.9621,-1.9613,-1.9619,-1.9586,-1.9549,-1.955,-1.9552,-1.9614,-1.962,-1.9626,0,0,0,0,0,-1.9986,-1.9992,-1.997,-1.9959,-1.9888,-1.9851,-1.9842,-1.9792,-1.9773,-1.9772,-1.9729,-1.9694,-1.9625,-1.9619,-1.9609,-1.9615,-1.9548,-1.955,-1.9552,-1.9611,-1.9619,-1.9625,0,0,0,0,0,0,-2.0059,-1.9983,-1.9957,-1.9943,-1.9904,-1.9838,-1.9836,-1.9803,-1.9768,-1.9764,-1.9703,-1.969,-1.9671,-1.964,-1.9636,-1.9609,-1.9581,-1.9581,-1.963,-1.9637,-1.9643,-1.965,-1.9583,0,0,0,0,0,-2.0074,-2.0051,-1.9985,-1.9979,-1.996,-1.9902,-1.9884,-1.9849,-1.9806,-1.9789,-1.9745,-1.9704,-1.9672,-1.9653,-1.9621,-1.9609,-1.9592,-1.9607,-1.9613,-1.9619,-1.9619,-1.9607,-1.9611,-1.9559,-1.9559,-1.9559,0,0,-2.0104,-2.0059,-2.0048,-1.9992,-1.9958,-1.9933,-1.9888,-1.9866,-1.9846,-1.9785,-1.9759,-1.9725,-1.9675,-1.9656,-1.9645,-1.963,-1.963,-1.9621,-1.9626,-1.9623,-1.9609,-1.9614,-1.9619,-1.956,-1.956,-1.956,0,0,-2.0145,-2.011,-2.0099,-2.0065,-2.0013,-1.9974,-1.9971,-1.991,-1.9885,-1.9857,-1.981,-1.9785,-1.9733,-1.9699,-1.9674,-1.9699,-1.9664,-1.969,-1.9721,-1.971,-1.9714,-1.9717,-1.9723,-1.9727,-1.9691,-1.9691,-1.9691,0,-2.0188,-2.0151,-2.0098,-2.0077,-2.0052,-1.9995,-1.9982,-1.9952,-1.9892,-1.9876,-1.9859,-1.979,-1.9753,-1.9723,-1.9728,-1.9711,-1.9704,-1.9697,-1.9718,-1.9721,-1.9723,-1.9728,-1.9731,-1.9694,-1.9694,-1.9693,-1.9693,0,-2.0205,-2.018,-2.0177,-2.012,-2.0095,-2.0079,-2.0021,-2.0002,-1.9969,-1.993,-1.9901,-1.9854,-1.9809,-1.9799,-1.9767,-1.9764,-1.9755,-1.9729,-1.97,-1.9732,-1.9736,-1.9738,-1.9699,-1.9698,-1.9697,-1.9696,0,0,-2.0291,-2.0203,-2.0203,-2.0175,-2.0112,-2.009,-2.007,-2.0026,-2.0009,-1.997,-1.9949,-1.9905,-1.9879,-1.9851,-1.9814,-1.9804,-1.9823,-1.9778,-1.9776,-1.9786,-1.9813,-1.9832,-1.9835,-1.9799,-1.98,-1.98,-1.9816,0,-2.0321,-2.0282,-2.0232,-2.0209,-2.0183,-2.0126,-2.0108,-2.0066,-2.0029,-2.0001,-1.9959,-1.9928,-1.9897,-1.988,-1.9868,-1.9823,-1.9827,-1.9822,-1.9778,-1.9777,-1.9791,-1.9838,-1.9858,-1.9876,-1.9818,-1.9818,-1.9818,0,-2.0352,-2.0313,-2.0288,-2.0224,-2.0211,-2.0196,-2.0149,-2.0123,-2.0074,-2.0047,-2.0015,-1.9974,-1.9947,-1.9922,-1.9882,-1.9879,-1.9858,-1.9833,-1.9833,-1.9826,-1.9799,-1.983,-1.9881,-1.9883,-1.982,-1.982,-1.982,0,-2.0414,-2.0356,-2.0332,-2.031,-2.0236,-2.0226,-2.0194,-2.0144,-2.0119,-2.0079,-2.0062,-2.0019,-1.9995,-1.9962,-1.9909,-1.9896,-1.9874,-1.9845,-1.985,-1.9851,-1.9847,-1.9848,-1.9894,-1.9837,-1.9837,-1.9837,-1.9836,0,-2.0452,-2.0438,-2.0359,-2.0344,-2.0325,-2.0267,-2.025,-2.0213,-2.0168,-2.0143,-2.0092,-2.007,-2.0003,-1.9973,-1.9932,-1.9903,-1.9894,-1.987,-1.9859,-1.9873,-1.9876,-1.9858,-1.9855,-1.9837,-1.9837,-1.9837,-1.9837,0,-2.0519,-2.0466,-2.0435,-2.0366,-2.0349,-2.0338,-2.0278,-2.026,-2.0219,-2.0189,-2.0178,-2.0114,-2.0074,-2.0019,-1.9964,-1.9935,-1.9912,-1.9896,-1.9929,-1.9922,-1.9929,-1.9928,-1.9964,-1.9964,-1.9909,-1.991,-1.991,0,-2.0546,-2.0533,-2.0462,-2.0442,-2.0412,-2.0381,-2.0355,-2.0296,-2.0271,-2.0212,-2.0201,-2.0158,-2.012,-2.006,-2.0007,-1.9963,-1.9944,-1.9959,-1.9937,-1.9951,-1.9941,-1.9942,-1.9939,-1.9964,-1.9965,-1.9966,-1.9967,0,-2.0598,-2.0572,-2.0537,-2.0492,-2.0463,-2.0425,-2.0384,-2.037,-2.0302,-2.0277,-2.0236,-2.0206,-2.0148,-2.0105,-2.0053,-2.0019,-1.9981,-1.9974,-1.9972,-1.9987,-2.0005,-1.9993,-1.9942,-1.9973,-1.9973,-1.9972,-1.9972,-1.9972,-2.0644,-2.0629,-2.0576,-2.0538,-2.0501,-2.0464,-2.0443,-2.0398,-2.0363,-2.0311,-2.0278,-2.0238,-2.0186,-2.0112,-2.008,-2.0046,-2.0031,-2.0029,-2.0028,-2.0028,-2.0032,-2.0012,-2.0037,-2.0036,-2.0036,-2.0036,-2.0036,0,-2.0692,-2.0655,-2.0621,-2.0564,-2.0534,-2.05,-2.0453,-2.0429,-2.0394,-2.0349,-2.0312,-2.0263,-2.022,-2.0163,-2.0116,-2.01,-2.0081,-2.0089,-2.0089,-2.0081,-2.005,-2.0055,-2.0105,-2.0105,-2.0105,-2.0105,-2.0105,-2.0105,-2.0714,-2.0685,-2.0652,-2.0604,-2.0566,-2.0526,-2.0502,-2.0466,-2.0429,-2.0377,-2.034,-2.0303,-2.0252,-2.02,-2.0158,-2.0142,-2.0126,-2.0139,-2.0118,-2.009,-2.0084,-2.0078,-2.0082,-2.0137,-2.0137,-2.0151,-2.0152,-2.0152]}]]